Location: Voyageurs National Park
(48.5020°N, 92.9292°W)
Time: 02:11:15
(UTC-05:00)

ATLAS 3B R/B - Pass Details

Date: 19 January 2018
Orbit: 1014 x 1181 km, 63.8° (Epoch: 21 May)

Event Time Altitude Azimuth Distance (km) Brightness Sun altitude
Exits shadow 07:00:30 - 318° (NW) 3,217 4.7 -9.0°
Reaches altitude 10° 07:01:32 10° 323° (NW) 2,908 4.5 -8.9°
Maximum altitude 07:07:16 27° 20° (NNE) 1,878 4.0 -8.0°
Drops below altitude 10° 07:12:50 10° 77° (ENE) 2,823 5.9 -7.1°
Sets 07:15:52 0° 90° (E) 3,760 7.0 -6.7°
